This demonstration page uses our WeatherBlox Daily Observations layout. Learn more.

41.55636, -103.73856

Hourly Observations for May 16, 2015

Temp ( °F °C ) Dew Point ( °F °C ) Humidity (%) Winds ( mph kmh ) Pressure ( in mb ) Visibility ( mi km ) Precip ( " mm )
12:53 am 00:53 Mostly Cloudy 46 8 43 6 87 87 WNW 8 13 29.68 1005 10 16.09344 0 0
1:53 am 01:53 Mostly Clear 45 7 41 5 87 87 NW 5 7 29.68 1005 10 16.09344 0 0
2:53 am 02:53 Partly Cloudy 43 6 41 5 93 93 NW 6 9 29.71 1006 10 16.09344 0 0
3:53 am 03:53 Mostly Cloudy 45 7 43 6 93 93 N 8 13 29.68 1005 10 16.09344 0 0
4:53 am 04:53 Partly Cloudy 43 6 41 5 93 93 WSW 5 7 29.71 1006 10 16.09344 0 0
5:53 am 05:53 Mostly Cloudy 43 6 41 5 93 93 NNW 10 17 29.71 1006 10 16.09344 0 0
6:53 am 06:53 Sunny 46 8 43 6 87 87 W 6 9 29.68 1005 10 16.09344 0 0
7:53 am 07:53 Sunny 52 11 45 7 77 77 WNW 6 9 29.62 1003 10 16.09344 0 0
8:53 am 08:53 Sunny 55 13 45 7 67 67 NW 10 17 29.59 1002 10 16.09344 0 0
9:53 am 09:53 Sunny 63 17 41 5 45 45 NW 13 20 29.5 999 10 16.09344 0 0
10:53 am 10:53 Mostly Sunny 64 18 41 5 43 43 W 10 17 29.5 999 10 16.09344 0 0
11:53 am 11:53 Mostly Sunny 66 19 37 3 35 35 W 9 15 29.47 998 10 16.09344 0 0
12:53 pm 12:53 Cloudy 66 19 37 3 35 35 W 8 13 29.47 998 10 16.09344 0 0
1:53 pm 13:53 Mostly Cloudy 68 20 36 2 30 30 N 3 6 29.47 998 10 16.09344 0 0
2:53 pm 14:53 Sunny 72 22 34 1 25 25 NNW 6 9 29.41 996 10 16.09344 0 0
3:53 pm 15:53 Sunny 70 21 32 0 25 25 N 3 6 29.41 996 10 16.09344 0 0
4:53 pm 16:53 Sunny 70 21 30 -1 23 23 N 3 6 29.41 996 10 16.09344 0 0
5:53 pm 17:53 Partly Cloudy 66 19 43 6 43 43 W 9 15 29.44 997 10 16.09344 0 0
6:53 pm 18:53 Sunny 63 17 37 3 39 39 WNW 9 15 29.5 999 10 16.09344 0 0
7:21 pm 19:21 Mostly Cloudy with Nearby Thunderstorms 61 16 41 5 48 48 N 7 11 29.53 1000 10 16.09344 0 0
7:40 pm 19:40 Partly Cloudy 57 14 41 5 55 55 N 9 15 29.59 1002 10 16.09344 0 0
7:53 pm 19:53 Mostly Cloudy 57 14 43 6 59 59 NNW 8 13 29.59 1002 10 16.09344 0 0
8:53 pm 20:53 Clear 54 12 45 7 72 72 SW 5 7 29.62 1003 10 16.09344 0 0
9:53 pm 21:53 Clear 54 12 45 7 72 72 SW 3 6 29.62 1003 10 16.09344 0 0
10:53 pm 22:53 Clear 52 11 45 7 77 77 NW 7 11 29.62 1003 10 16.09344 0 0
11:53 pm 23:53 Mostly Cloudy 50 10 45 7 82 82 NW 7 11 29.65 1004 10 16.09344 0 0

Powered by AerisWeather